Date String (YYYY-MM-DD hh:mm:ss) UTC,Instrument flags,absolute air pressure of the measurement (hPa),sample flow rate (lpm),inlet stack bypass flow (lpm),air temperature of the measurement (°C),ambient temperature measured by the external sensor (°C),aerosol sample conditioner tube jacket temperature (°C),OPC LED temperature (°C),internal box temperature (°C),relative humidity of the measurement (%),span deviation,mass concentration of particles derived from Lorenz-Mie calculation of OPC scattering (μg/m³),mass concentration of particles derived from Lorenz-Mie calculation of OPC scattering (μg/m³),mass concentration of particles derived from Lorenz-Mie calculation of OPC scattering (μg/m³)
DateTimeUTC,F1_M11,P_M11,Q1_M11,Q2_M11,T1_M11,T2_M11,T3_M11,T4_M11,T5_M11,U1_M11,ZSPAN_M11,X2_M11,X0_M11,X1_M11
2023-12-08 00:00:00,SystemResetWarning,0818.8,5.00,000.00,025.2,024.2,000.0,033.6,026.6,11.5,0000.0,0001.44,0003.58,0000.99
2023-12-08 00:01:00,SystemResetWarning,0818.9,4.99,000.00,025.2,024.2,000.0,033.6,026.6,11.5,0000.0,0001.43,0003.66,0000.98
2023-12-08 00:02:00,SystemResetWarning,0819.0,4.99,000.00,025.2,024.2,000.0,033.6,026.6,11.5,0000.0,0001.43,0003.71,0000.98
2023-12-08 00:03:00,SystemResetWarning,0819.1,5.00,000.00,025.2,024.2,000.0,033.6,026.6,11.4,0000.0,0001.44,0003.84,0000.98
2023-12-08 00:04:00,SystemResetWarning,0819.0,5.00,000.00,025.2,024.2,000.0,033.6,026.5,11.0,0000.0,0001.44,0003.83,0000.98
2023-12-08 00:05:00,SystemResetWarning,0819.0,5.00,000.00,025.2,024.2,000.0,033.6,026.6,11.0,0000.0,0001.40,0003.78,0000.96
2023-12-08 00:06:00,SystemResetWarning,0818.8,5.01,000.00,025.2,024.2,000.0,033.6,026.6,11.0,0000.0,0001.31,0003.61,0000.95
2023-12-08 00:07:00,SystemResetWarning,0818.8,5.00,000.00,025.2,024.2,000.0,033.6,026.6,10.9,0000.0,0001.29,0003.57,0000.95
2023-12-08 00:08:00,SystemResetWarning,0818.8,4.99,000.00,025.3,024.2,000.0,033.6,026.7,10.9,0000.0,0001.30,0003.97,0000.95
2023-12-08 00:09:00,SystemResetWarning,0818.9,4.99,000.00,025.3,024.3,000.0,033.6,026.7,10.9,0000.0,0001.30,0004.34,0000.96
2023-12-08 00:10:00,SystemResetWarning,0818.8,5.00,000.00,025.3,024.2,000.0,033.6,026.7,10.8,0000.0,0001.29,0003.53,0000.97
2023-12-08 00:11:00,SystemResetWarning,0818.9,4.99,000.00,025.3,024.2,000.0,033.6,026.7,10.7,0000.0,0001.29,0003.22,0000.97
2023-12-08 00:12:00,SystemResetWarning,0818.9,5.01,000.00,025.3,024.2,000.0,033.6,026.6,10.6,0000.0,0001.29,0003.22,0000.97
2023-12-08 00:13:00,SystemResetWarning,0819.0,5.00,000.00,025.3,024.2,000.0,033.6,026.6,10.5,0000.0,0001.30,0003.21,0000.96
2023-12-08 00:14:00,SystemResetWarning,0819.4,5.00,000.00,025.3,024.2,000.0,033.6,026.6,10.6,0000.0,0001.29,0005.26,0000.97
2023-12-08 00:15:00,SystemResetWarning,0819.1,5.01,000.00,025.3,024.2,000.0,033.6,026.6,10.5,0000.0,0001.30,0005.76,0000.97
2023-12-08 00:16:00,SystemResetWarning,0818.7,5.00,000.00,025.3,024.2,000.0,033.6,026.6,10.4,0000.0,0001.33,0005.81,0001.00
2023-12-08 00:17:00,SystemResetWarning,0818.8,5.00,000.00,025.3,024.2,000.0,033.6,026.7,10.4,0000.0,0001.36,0005.86,0001.01
2023-12-08 00:18:00,SystemResetWarning,0818.8,5.00,000.00,025.3,024.2,000.0,033.6,026.7,10.5,0000.0,0001.37,0006.19,0001.01
2023-12-08 00:19:00,SystemResetWarning,0819.2,5.00,000.00,025.3,024.3,000.0,033.6,026.6,10.4,0000.0,0001.35,0005.96,0001.01
2023-12-08 00:20:00,SystemResetWarning,0819.3,5.00,000.00,025.3,024.3,000.0,033.6,026.7,10.4,0000.0,0001.36,0005.56,0001.02
2023-12-08 00:21:00,SystemResetWarning,0819.1,5.00,000.00,025.3,024.3,000.0,033.6,026.7,10.4,0000.0,0001.38,0005.68,0001.02
2023-12-08 00:22:00,SystemResetWarning,0818.9,5.00,000.00,025.3,024.3,000.0,033.6,026.7,10.4,0000.0,0001.39,0005.75,0001.02
2023-12-08 00:23:00,SystemResetWarning,0818.7,5.00,000.00,025.3,024.3,000.0,033.6,026.7,10.3,0000.0,0001.40,0005.73,0001.02
2023-12-08 00:24:00,SystemResetWarning,0819.0,5.01,000.00,025.3,024.4,000.0,033.6,026.7,10.3,0000.0,0001.41,0005.75,0001.03
2023-12-08 00:25:00,SystemResetWarning,0818.8,5.00,000.00,025.4,024.4,000.0,033.6,026.8,10.3,0000.0,0001.38,0003.52,0001.02
2023-12-08 00:26:00,SystemResetWarning,0818.8,4.99,000.00,025.4,024.4,000.0,033.6,026.8,10.3,0000.0,0001.36,0002.93,0001.03
2023-12-08 00:27:00,SystemResetWarning,0819.0,5.00,000.00,025.4,024.4,000.0,033.6,026.8,10.3,0000.0,0001.35,0003.10,0001.02
2023-12-08 00:28:00,SystemResetWarning,0819.1,4.99,000.00,025.4,024.5,000.0,033.6,026.8,10.3,0000.0,0001.37,0004.44,0001.01
2023-12-08 00:29:00,SystemResetWarning,0818.8,5.00,000.00,025.4,024.5,000.0,033.7,026.8,10.3,0000.0,0001.43,0006.08,0001.01
2023-12-08 00:30:00,SystemResetWarning,0818.7,5.00,000.00,025.4,024.5,000.0,033.7,026.8,10.2,0000.0,0001.47,0005.77,0001.02
2023-12-08 00:31:00,SystemResetWarning,0818.8,5.00,000.00,025.4,024.5,000.0,033.7,026.8,10.2,0000.0,0001.50,0005.83,0001.02
2023-12-08 00:32:00,SystemResetWarning,0818.8,5.00,000.00,025.4,024.4,000.0,033.7,026.8,10.3,0000.0,0001.51,0005.81,0001.03
2023-12-08 00:33:00,SystemResetWarning,0818.7,5.00,000.00,025.4,024.4,000.0,033.7,026.7,10.3,0000.0,0001.52,0006.81,0001.04
2023-12-08 00:34:00,SystemResetWarning,0818.7,5.00,000.00,025.4,024.4,000.0,033.7,026.8,10.2,0000.0,0001.53,0007.41,0001.04
2023-12-08 00:35:00,SystemResetWarning,0818.7,5.00,000.00,025.4,024.4,000.0,033.7,026.8,10.2,0000.0,0001.49,0007.39,0001.05
2023-12-08 00:36:00,SystemResetWarning,0818.8,5.00,000.00,025.4,024.4,000.0,033.7,026.8,10.2,0000.0,0001.52,0007.62,0001.06
2023-12-08 00:37:00,SystemResetWarning,0818.7,5.00,000.00,025.4,024.4,000.0,033.7,026.7,10.1,0000.0,0001.55,0008.48,0001.05
2023-12-08 00:38:00,SystemResetWarning,0818.7,5.00,000.00,025.4,024.4,000.0,033.7,026.7,10.1,0000.0,0001.56,0008.46,0001.05
2023-12-08 00:39:00,SystemResetWarning,0818.7,5.00,000.00,025.4,024.4,000.0,033.7,026.8,10.1,0000.0,0001.55,0008.02,0001.06
2023-12-08 00:40:00,SystemResetWarning,0818.7,4.99,000.00,025.4,024.4,000.0,033.7,026.8,10.1,0000.0,0001.49,0006.71,0001.06
2023-12-08 00:41:00,SystemResetWarning,0818.8,5.00,000.00,025.4,024.4,000.0,033.7,026.7,10.1,0000.0,0001.46,0007.34,0001.06
2023-12-08 00:42:00,SystemResetWarning,0818.7,5.00,000.00,025.4,024.4,000.0,033.7,026.8,10.2,0000.0,0001.42,0007.54,0001.05
2023-12-08 00:43:00,SystemResetWarning,0818.8,5.00,000.00,025.4,024.4,000.0,033.7,026.8,10.2,0000.0,0001.40,0007.55,0001.04
2023-12-08 00:44:00,SystemResetWarning,0818.8,4.99,000.00,025.4,024.4,000.0,033.7,026.7,10.1,0000.0,0001.38,0007.51,0001.04
2023-12-08 00:45:00,SystemResetWarning,0818.8,5.00,000.00,025.4,024.4,000.0,033.7,026.7,10.1,0000.0,0001.34,0007.81,0001.03
2023-12-08 00:46:00,SystemResetWarning,0818.9,4.99,000.00,025.4,024.3,000.0,033.7,026.7,10.2,0000.0,0001.38,0007.78,0001.03
2023-12-08 00:47:00,SystemResetWarning,0818.8,5.00,000.00,025.4,024.3,000.0,033.7,026.7,10.2,0000.0,0001.37,0007.52,0001.04
2023-12-08 00:48:00,SystemResetWarning,0819.0,5.01,000.00,025.4,024.3,000.0,033.7,026.7,10.0,0000.0,0001.34,0006.23,0001.03
2023-12-08 00:49:00,SystemResetWarning,0818.7,5.02,000.00,025.4,024.3,000.0,033.7,026.7,10.0,0000.0,0001.38,0006.66,0001.03
2023-12-08 00:50:00,SystemResetWarning,0818.7,5.01,000.00,025.4,024.3,000.0,033.7,026.6,10.0,0000.0,0001.39,0006.50,0001.03
2023-12-08 00:51:00,SystemResetWarning,0818.7,4.99,000.00,025.3,024.2,000.0,033.7,026.7,9.9,0000.0,0001.39,0006.18,0001.04
2023-12-08 00:52:00,SystemResetWarning,0818.6,4.99,000.00,025.3,024.3,000.0,033.7,026.7,9.9,0000.0,0001.39,0005.50,0001.04
2023-12-08 00:53:00,SystemResetWarning,0818.7,5.00,000.00,025.3,024.3,000.0,033.7,026.7,10.0,0000.0,0001.43,0005.30,0001.05
2023-12-08 00:54:00,SystemResetWarning,0818.8,5.00,000.00,025.3,024.3,000.0,033.7,026.7,10.0,0000.0,0001.46,0005.43,0001.05
2023-12-08 00:55:00,SystemResetWarning,0818.9,5.00,000.00,025.3,024.3,000.0,033.7,026.6,10.1,0000.0,0001.49,0005.79,0001.05
2023-12-08 00:56:00,SystemResetWarning,0818.8,5.00,000.00,025.3,024.3,000.0,033.7,026.6,10.1,0000.0,0001.51,0004.36,0001.06
2023-12-08 00:57:00,SystemResetWarning,0818.7,5.00,000.00,025.3,024.3,000.0,033.7,026.5,10.1,0000.0,0001.46,0004.22,0001.05
2023-12-08 00:58:00,SystemResetWarning,0818.7,5.00,000.00,025.2,024.3,000.0,033.7,026.3,9.9,0000.0,0001.45,0004.24,0001.04
2023-12-08 00:59:00,SystemResetWarning,0818.7,5.00,000.00,025.2,024.2,000.0,033.6,026.2,9.8,0000.0,0001.48,0004.62,0001.05
